SDR82S LDRI-EDDC

Flight info

Callsign SDR82S
Flight time 1h 4m
Altitude 38000
Route ALIVO1V ALIVO DCT NAKUM DCT MEDEL DCT IPRUX DCT DONAD DCT KONAR DCT ABKIS DCT
Aircraft A20N/M-SDE2E3FGHIRWXY/LB1

Departure

Time 2026-05-09 12:11
Airport Rijeka Airport (LDRI)

Arrival

Time 2026-05-09 13:16
Airport Dresden Airport (EDDC)
Time Latitude Longitude Altitude Speed Heading
2026-05-09 11:52 45.21913 14.57157 265 ft 0 kts 107°
2026-05-09 12:05 45.21912 14.57158 265 ft 1 kts 124°
2026-05-09 12:05 45.21906 14.57152 265 ft 1 kts 210°
2026-05-09 12:05 45.21893 14.57129 265 ft 0 kts 226°
2026-05-09 12:06 45.21881 14.57141 265 ft 7 kts 142°
2026-05-09 12:06 45.21820 14.57199 264 ft 14 kts 153°
2026-05-09 12:06 45.21705 14.57207 263 ft 20 kts 180°
2026-05-09 12:06 45.21564 14.57174 262 ft 2 kts 173°
2026-05-09 12:07 45.21542 14.57204 262 ft 15 kts 137°
2026-05-09 12:07 45.21387 14.57369 260 ft 34 kts 145°
2026-05-09 12:07 45.21253 14.57503 257 ft 36 kts 145°
2026-05-09 12:07 45.20974 14.57792 256 ft 35 kts 144°
2026-05-09 12:08 45.20869 14.57899 256 ft 21 kts 144°
2026-05-09 12:08 45.20773 14.57956 256 ft 11 kts 176°
2026-05-09 12:08 45.20758 14.58003 256 ft 7 kts 50°
2026-05-09 12:08 45.20789 14.57985 256 ft 6 kts 323°
2026-05-09 12:09 45.20792 14.57981 256 ft 0 kts 323°
2026-05-09 12:10 45.20802 14.57971 256 ft 15 kts 323°
2026-05-09 12:10 45.21098 14.57666 256 ft 88 kts 324°
2026-05-09 12:11 45.21755 14.56989 264 ft 142 kts 324°
2026-05-09 12:11 45.22591 14.56122 752 ft 146 kts 324°
2026-05-09 12:11 45.23407 14.55272 1519 ft 146 kts 321°
2026-05-09 12:11 45.24085 14.54175 2113 ft 152 kts 300°
2026-05-09 12:12 45.24632 14.52775 2475 ft 172 kts 298°
2026-05-09 12:12 45.25268 14.51249 2830 ft 190 kts 302°
2026-05-09 12:12 45.26066 14.49625 3171 ft 209 kts 306°
2026-05-09 12:12 45.26993 14.47932 3476 ft 228 kts 308°
2026-05-09 12:13 45.28049 14.46096 3806 ft 245 kts 309°
2026-05-09 12:13 45.29130 14.44247 4424 ft 247 kts 309°
2026-05-09 12:13 45.30235 14.42356 5043 ft 249 kts 309°
2026-05-09 12:13 45.31354 14.40438 5638 ft 251 kts 309°
2026-05-09 12:14 45.32532 14.38624 6187 ft 252 kts 324°
2026-05-09 12:14 45.34115 14.37659 6679 ft 254 kts 352°
2026-05-09 12:14 45.35888 14.37891 7236 ft 256 kts 15°
2026-05-09 12:14 45.37593 14.38599 7906 ft 259 kts 16°
2026-05-09 12:15 45.39338 14.39344 8689 ft 262 kts 16°
2026-05-09 12:15 45.41084 14.40079 9530 ft 265 kts 15°
2026-05-09 12:15 45.42868 14.40907 10392 ft 270 kts 26°
2026-05-09 12:15 45.44317 14.42588 11175 ft 276 kts 53°
2026-05-09 12:16 45.45194 14.45069 11913 ft 286 kts 69°
2026-05-09 12:16 45.45884 14.47833 12269 ft 309 kts 71°
2026-05-09 12:16 45.46585 14.50823 12544 ft 332 kts 71°
2026-05-09 12:16 45.47356 14.54058 12823 ft 354 kts 71°
2026-05-09 12:17 45.48184 14.57430 13503 ft 361 kts 70°
2026-05-09 12:17 45.49026 14.60798 14244 ft 366 kts 70°
2026-05-09 12:17 45.49893 14.64240 14932 ft 370 kts 70°
2026-05-09 12:17 45.50982 14.67552 15601 ft 374 kts 54°
2026-05-09 12:18 45.52770 14.70262 16259 ft 376 kts 35°
2026-05-09 12:18 45.55079 14.72008 16943 ft 376 kts 15°
2026-05-09 12:18 45.57638 14.72616 17616 ft 376 kts 357°
2026-05-09 12:18 45.60206 14.72123 18325 ft 376 kts 344°
2026-05-09 12:19 45.62760 14.71128 18969 ft 378 kts 341°
2026-05-09 12:19 45.65272 14.70094 19603 ft 380 kts 341°
2026-05-09 12:19 45.67853 14.69110 20224 ft 383 kts 342°
2026-05-09 12:19 45.70434 14.68210 20843 ft 386 kts 343°
2026-05-09 12:20 45.73071 14.67342 21461 ft 389 kts 343°
2026-05-09 12:20 45.75727 14.66491 22070 ft 392 kts 343°
2026-05-09 12:20 45.78420 14.65635 22612 ft 397 kts 343°
2026-05-09 12:20 45.81102 14.64784 23220 ft 399 kts 343°
2026-05-09 12:21 45.83835 14.63915 23788 ft 402 kts 343°
2026-05-09 12:21 45.86547 14.63050 24273 ft 404 kts 343°
2026-05-09 12:21 45.89314 14.62167 24761 ft 407 kts 343°
2026-05-09 12:21 45.92076 14.61287 25249 ft 409 kts 343°
2026-05-09 12:22 45.94879 14.60397 25745 ft 411 kts 343°
2026-05-09 12:22 45.97654 14.59518 26260 ft 412 kts 343°
2026-05-09 12:22 46.00469 14.58624 26715 ft 415 kts 343°
2026-05-09 12:22 46.03324 14.57697 26990 ft 422 kts 342°
2026-05-09 12:23 46.06199 14.56760 27428 ft 424 kts 342°
2026-05-09 12:23 46.09061 14.55831 27847 ft 426 kts 342°
2026-05-09 12:23 46.11977 14.54888 28240 ft 429 kts 342°
2026-05-09 12:23 46.14913 14.53940 28630 ft 432 kts 342°
2026-05-09 12:24 46.17823 14.53000 28988 ft 435 kts 342°
2026-05-09 12:24 46.20800 14.52037 29346 ft 437 kts 342°
2026-05-09 12:24 46.23790 14.51069 29715 ft 439 kts 342°
2026-05-09 12:24 46.26752 14.50109 30075 ft 442 kts 342°
2026-05-09 12:25 46.29768 14.49130 30389 ft 444 kts 342°
2026-05-09 12:25 46.32775 14.48154 30735 ft 445 kts 342°
2026-05-09 12:25 46.35811 14.47168 31051 ft 446 kts 342°
2026-05-09 12:25 46.38862 14.46173 31394 ft 448 kts 342°
2026-05-09 12:26 46.41859 14.45198 31809 ft 446 kts 342°
2026-05-09 12:26 46.44900 14.44207 32216 ft 444 kts 342°
2026-05-09 12:26 46.47929 14.43217 32587 ft 444 kts 342°
2026-05-09 12:26 46.50917 14.42240 32949 ft 444 kts 342°
2026-05-09 12:27 46.53932 14.41252 33312 ft 443 kts 342°
2026-05-09 12:27 46.56956 14.40261 33711 ft 442 kts 342°
2026-05-09 12:27 46.59930 14.39285 34074 ft 441 kts 342°
2026-05-09 12:27 46.62941 14.38295 34357 ft 441 kts 342°
2026-05-09 12:28 46.65936 14.37309 34627 ft 441 kts 342°
2026-05-09 12:28 46.68946 14.36317 34887 ft 441 kts 342°
2026-05-09 12:28 46.71907 14.35336 35140 ft 441 kts 341°
2026-05-09 12:28 46.74847 14.34090 35380 ft 438 kts 338°
2026-05-09 12:29 46.77750 14.32776 35628 ft 438 kts 338°
2026-05-09 12:29 46.80670 14.31474 35851 ft 438 kts 338°
2026-05-09 12:29 46.83598 14.30171 36044 ft 439 kts 338°
2026-05-09 12:30 46.89423 14.27566 36407 ft 439 kts 338°
2026-05-09 12:30 46.92357 14.26249 36644 ft 439 kts 338°
2026-05-09 12:30 46.98197 14.23621 37043 ft 439 kts 338°
2026-05-09 12:31 47.01134 14.22297 37249 ft 439 kts 338°
2026-05-09 12:31 47.06962 14.19663 37610 ft 439 kts 338°
2026-05-09 12:31 47.09878 14.18345 37724 ft 438 kts 338°
2026-05-09 12:32 47.12766 14.17035 37914 ft 439 kts 338°
2026-05-09 12:32 47.15694 14.15706 38078 ft 439 kts 338°
2026-05-09 12:32 47.18618 14.14378 38092 ft 439 kts 338°
2026-05-09 12:33 47.24458 14.11722 38090 ft 438 kts 338°
2026-05-09 12:33 47.30279 14.09066 38096 ft 439 kts 338°
2026-05-09 12:34 47.36092 14.06411 38100 ft 438 kts 338°
2026-05-09 12:34 47.41894 14.03754 38106 ft 439 kts 338°
2026-05-09 12:35 47.47742 14.01069 38106 ft 439 kts 338°
2026-05-09 12:35 47.53571 13.98389 38108 ft 439 kts 338°
2026-05-09 12:36 47.59400 13.95699 38108 ft 439 kts 338°
2026-05-09 12:36 47.65252 13.92994 38107 ft 439 kts 338°
2026-05-09 12:37 47.71059 13.90301 38108 ft 439 kts 338°
2026-05-09 12:37 47.76885 13.87595 38113 ft 439 kts 338°
2026-05-09 12:38 47.82705 13.84886 38119 ft 440 kts 338°
2026-05-09 12:38 47.88573 13.82148 38120 ft 441 kts 338°
2026-05-09 12:39 47.94419 13.79414 38109 ft 440 kts 338°
2026-05-09 12:39 48.00241 13.76685 38110 ft 440 kts 338°
2026-05-09 12:40 48.06101 13.73931 38111 ft 440 kts 338°
2026-05-09 12:40 48.11931 13.71185 38110 ft 440 kts 338°
2026-05-09 12:41 48.17759 13.68433 38108 ft 441 kts 338°
2026-05-09 12:41 48.23699 13.66023 38096 ft 444 kts 343°
2026-05-09 12:42 48.29724 13.63990 38106 ft 444 kts 343°
2026-05-09 12:42 48.35734 13.61941 38104 ft 444 kts 343°
2026-05-09 12:43 48.41781 13.59881 38107 ft 444 kts 343°
2026-05-09 12:43 48.47799 13.57827 38102 ft 445 kts 343°
2026-05-09 12:44 48.53831 13.55764 38104 ft 445 kts 343°
2026-05-09 12:44 48.59862 13.53696 38098 ft 445 kts 343°
2026-05-09 12:45 48.65926 13.51610 38100 ft 445 kts 343°
2026-05-09 12:45 48.71935 13.49539 38106 ft 445 kts 343°
2026-05-09 12:46 48.77982 13.47451 38106 ft 446 kts 344°
2026-05-09 12:46 48.84019 13.45360 38111 ft 446 kts 344°
2026-05-09 12:47 48.90093 13.43251 38111 ft 446 kts 344°
2026-05-09 12:47 48.96123 13.41153 38123 ft 446 kts 344°
2026-05-09 12:48 49.02181 13.39038 38124 ft 446 kts 344°
2026-05-09 12:48 49.08223 13.36925 38130 ft 446 kts 344°
2026-05-09 12:49 49.14234 13.34819 38121 ft 444 kts 344°
2026-05-09 12:49 49.20230 13.32711 38020 ft 445 kts 344°
2026-05-09 12:49 49.23256 13.31644 37657 ft 445 kts 344°
2026-05-09 12:50 49.26278 13.30578 37137 ft 443 kts 344°
2026-05-09 12:50 49.29244 13.29531 36632 ft 441 kts 344°
2026-05-09 12:50 49.32252 13.28468 36131 ft 438 kts 345°
2026-05-09 12:50 49.35188 13.27429 35655 ft 437 kts 345°
2026-05-09 12:51 49.38163 13.26373 35181 ft 437 kts 345°
2026-05-09 12:51 49.41111 13.25324 34718 ft 438 kts 345°
2026-05-09 12:51 49.44082 13.24267 34256 ft 437 kts 345°
2026-05-09 12:51 49.47065 13.23205 33729 ft 436 kts 345°
2026-05-09 12:52 49.49996 13.22159 33209 ft 436 kts 346°
2026-05-09 12:52 49.52965 13.21064 32665 ft 436 kts 345°
2026-05-09 12:52 49.55887 13.19951 32159 ft 436 kts 346°
2026-05-09 12:52 49.58836 13.18821 31660 ft 436 kts 346°
2026-05-09 12:53 49.61796 13.17690 31149 ft 436 kts 346°
2026-05-09 12:53 49.64722 13.16574 30661 ft 435 kts 347°
2026-05-09 12:53 49.67666 13.15454 30164 ft 431 kts 347°
2026-05-09 12:53 49.70529 13.14365 29598 ft 427 kts 347°
2026-05-09 12:54 49.73402 13.13274 29019 ft 422 kts 347°
2026-05-09 12:54 49.76258 13.12188 28468 ft 419 kts 347°
2026-05-09 12:54 49.79060 13.11121 27928 ft 417 kts 347°
2026-05-09 12:54 49.80941 13.10404 27572 ft 416 kts 347°
2026-05-09 12:55 49.84624 13.08999 26739 ft 414 kts 346°
2026-05-09 12:55 49.87461 13.07916 26091 ft 411 kts 346°
2026-05-09 12:55 49.89303 13.07212 25675 ft 410 kts 346°
2026-05-09 12:55 49.92068 13.06155 25057 ft 408 kts 346°
2026-05-09 12:56 49.94827 13.05099 24468 ft 405 kts 346°
2026-05-09 12:56 49.97575 13.04046 23872 ft 403 kts 345°
2026-05-09 12:56 50.00267 13.03014 23217 ft 401 kts 345°
2026-05-09 12:56 50.02986 13.01967 22529 ft 399 kts 345°
2026-05-09 12:57 50.05663 13.00991 21873 ft 397 kts 349°
2026-05-09 12:57 50.08412 13.00499 21224 ft 396 kts 356°
2026-05-09 12:57 50.11165 13.00574 20591 ft 395 kts
2026-05-09 12:57 50.13863 13.01059 19975 ft 393 kts
2026-05-09 12:58 50.16591 13.01551 19359 ft 391 kts
2026-05-09 12:58 50.19294 13.02027 18760 ft 389 kts
2026-05-09 12:58 50.21950 13.02496 18132 ft 386 kts
2026-05-09 12:58 50.24621 13.02970 17465 ft 384 kts
2026-05-09 12:59 50.27275 13.03444 16805 ft 382 kts
2026-05-09 12:59 50.29916 13.03918 16162 ft 380 kts
2026-05-09 12:59 50.32520 13.04388 15536 ft 378 kts
2026-05-09 12:59 50.35151 13.04863 14907 ft 376 kts
2026-05-09 13:00 50.37717 13.05326 14307 ft 374 kts
2026-05-09 13:00 50.40304 13.05795 13676 ft 372 kts
2026-05-09 13:00 50.42876 13.06261 13023 ft 370 kts
2026-05-09 13:00 50.45409 13.06527 12373 ft 368 kts 359°
2026-05-09 13:01 50.47973 13.06400 11732 ft 365 kts 357°
2026-05-09 13:01 50.50510 13.06279 11110 ft 362 kts 357°
2026-05-09 13:01 50.53025 13.06167 10496 ft 360 kts 357°
2026-05-09 13:01 50.55504 13.06059 9891 ft 358 kts 357°
2026-05-09 13:02 50.58000 13.05947 9220 ft 356 kts 357°
2026-05-09 13:02 50.60451 13.05836 8579 ft 354 kts 357°
2026-05-09 13:02 50.62921 13.05895 7934 ft 353 kts
2026-05-09 13:02 50.65345 13.06545 7335 ft 351 kts 12°
2026-05-09 13:03 50.67679 13.07397 7053 ft 340 kts 12°
2026-05-09 13:03 50.69947 13.08200 6960 ft 323 kts 12°
2026-05-09 13:03 50.72051 13.08941 6955 ft 305 kts 12°
2026-05-09 13:03 50.74067 13.09651 6959 ft 287 kts 11°
2026-05-09 13:04 50.75982 13.10329 6862 ft 275 kts 11°
2026-05-09 13:04 50.77827 13.11043 6616 ft 271 kts 19°
2026-05-09 13:04 50.79398 13.12545 6368 ft 265 kts 43°
2026-05-09 13:04 50.80456 13.14883 6113 ft 259 kts 63°
2026-05-09 13:05 50.81264 13.17383 5845 ft 256 kts 64°
2026-05-09 13:05 50.82078 13.19937 5535 ft 271 kts 64°
2026-05-09 13:05 50.82938 13.22665 5129 ft 278 kts 64°
2026-05-09 13:05 50.83783 13.25363 4981 ft 268 kts 64°
2026-05-09 13:06 50.84599 13.27964 4969 ft 269 kts 64°
2026-05-09 13:06 50.85434 13.30633 4963 ft 268 kts 64°
2026-05-09 13:06 50.86262 13.33289 4962 ft 268 kts 64°
2026-05-09 13:06 50.87073 13.35889 4965 ft 259 kts 64°
2026-05-09 13:07 50.87850 13.38379 4966 ft 244 kts 64°
2026-05-09 13:07 50.88578 13.40694 4965 ft 229 kts 60°
2026-05-09 13:07 50.89558 13.42577 4970 ft 214 kts 45°
2026-05-09 13:07 50.90622 13.44234 4978 ft 217 kts 44°
2026-05-09 13:08 50.91709 13.45887 4995 ft 214 kts 44°
2026-05-09 13:08 50.92792 13.47519 4977 ft 215 kts 44°
2026-05-09 13:08 50.93875 13.49138 4978 ft 215 kts 43°
2026-05-09 13:08 50.94969 13.50761 4981 ft 215 kts 43°
2026-05-09 13:09 50.96072 13.52383 4984 ft 216 kts 43°
2026-05-09 13:09 50.97177 13.53998 4846 ft 211 kts 43°
2026-05-09 13:09 50.98222 13.55514 4553 ft 198 kts 43°
2026-05-09 13:09 50.99202 13.56927 4287 ft 181 kts 43°
2026-05-09 13:10 51.00097 13.58214 4045 ft 165 kts 43°
2026-05-09 13:10 51.00922 13.59395 3820 ft 154 kts 43°
2026-05-09 13:10 51.01688 13.60487 3627 ft 144 kts 43°
2026-05-09 13:10 51.02451 13.61574 3438 ft 148 kts 43°
2026-05-09 13:11 51.03207 13.62644 3240 ft 146 kts 43°
2026-05-09 13:11 51.03938 13.63674 3029 ft 147 kts 43°
2026-05-09 13:11 51.04713 13.64760 2845 ft 146 kts 43°
2026-05-09 13:11 51.05455 13.65835 2649 ft 145 kts 43°
2026-05-09 13:12 51.06217 13.66882 2459 ft 146 kts 41°
2026-05-09 13:12 51.06978 13.67929 2257 ft 144 kts 41°
2026-05-09 13:12 51.07732 13.68964 2067 ft 144 kts 42°
2026-05-09 13:12 51.08496 13.70014 1867 ft 144 kts 42°
2026-05-09 13:13 51.09243 13.71042 1670 ft 142 kts 41°
2026-05-09 13:13 51.09994 13.72072 1446 ft 142 kts 43°
2026-05-09 13:13 51.10736 13.73095 1263 ft 142 kts 43°
2026-05-09 13:13 51.11487 13.74128 1066 ft 143 kts 43°
2026-05-09 13:14 51.12249 13.75162 855 ft 143 kts 42°
2026-05-09 13:14 51.12973 13.76167 748 ft 132 kts 40°
2026-05-09 13:16 51.14267 13.78345 698 ft 20 kts 139°
2026-05-09 13:16 51.14149 13.78265 704 ft 25 kts 220°
2026-05-09 13:16 51.13995 13.78052 703 ft 31 kts 220°
2026-05-09 13:16 51.13829 13.77823 717 ft 32 kts 221°
2026-05-09 13:17 51.13663 13.77591 719 ft 32 kts 221°
2026-05-09 13:17 51.13481 13.77344 725 ft 35 kts 220°
2026-05-09 13:17 51.13312 13.77107 730 ft 29 kts 220°
2026-05-09 13:17 51.13161 13.76904 739 ft 27 kts 223°
2026-05-09 13:18 51.13019 13.76710 742 ft 27 kts 221°
2026-05-09 13:18 51.12879 13.76518 746 ft 27 kts 219°
2026-05-09 13:18 51.12781 13.76419 748 ft 6 kts 148°
2026-05-09 13:18 51.12745 13.76487 749 ft 11 kts 128°
2026-05-09 13:19 51.12688 13.76521 751 ft 9 kts 223°
2026-05-09 13:19 51.12660 13.76482 751 ft 0 kts 221°